Location: 433rd Scouts Home(Lloyd Manor Park, Etobicoke )
(43.6722°N, 79.5542°W)
Time: 19:28:51
(UTC-04:00)

Nauka - Pass Details

Date: 26 September 2021
Orbit: 418 x 423 km, 51.6° (Epoch: 18 October)

Event Time Altitude Azimuth Distance (km) Brightness Sun altitude
Rises 19:31:38 0° 283° (WNW) 2,361 ? -5.2°
Reaches altitude 10° 19:34:03 10° 300° (WNW) 1,499 ? -5.6°
Maximum altitude 19:36:44 22° 353° (N) 985 ? -6.1°
Drops below altitude 10° 19:39:26 10° 46° (NE) 1,503 ? -6.6°
Enters shadow 19:40:49 - 57° (ENE) 1,978 ? -6.8°
